星链-5276 (STARLINK-5276 )

导读

STARLINK-5276是美国太空探索技术公司(SpaceX)星链互联网卫星星座的一员,由美国于2023年1月31日发射,承担低轨卫星互联网服务任务,运行在近地轨道,为全球偏远地区、海洋等网络薄弱区域提供宽带互联网接入,助力星链星座完善全球覆盖布局。

基本信息
目录编号:
55399
目录名称:
STARLINK-5276
国际标识:
2023-014J
轨道中心:
EARTH
卫星名称:
星链-5276
卫星全名:
星链-5276 (STARLINK-5276 )
卫星状态:
在轨 (已飞行1231 天)
发射日期:
2023-01-31 UTC
国别 :
美国 (US)
星等 :
--
轨道信息
数据来源 国际轨道数据 AOE轨道数据
星历时间 2026-06-14T19:09:58+0800
20小时前
查看轨道信息
2026-06-14T01:00:00+0800
1天前
查看轨道信息
半长轴 6950.191km 6950.193km
偏心率 0.0003597 0.0003953
轨道倾角 69.999° 69.998°
近地点辐角 265.402° 270.323°
升交点赤经 180.360° 182.267°
平近点角 94.673° 328.057°
近地点 569.554km 569.308km
远地点 574.554km 574.804km
周期 96.107分钟 96.107分钟
每日圈数 14.983308 14.9833
详细信息
固有亮度:
5
最大亮度:
2.5
卫星平台:
Starlink v1.5
覆盖范围:
全球
运营商:
太空探索技术公司
运营商所在国:
美国
制造商(研发单位):
太空探索技术公司
制造商所在国:
美国
使用方式:
暂无
卫星简介
星链(Starlink)计划是由太空探索技术公司(SpaceX)提出的一个巨型低轨卫星互联网星座项目,计划在2019年至2024年间在太空搭建由约1.2万颗卫星组成的“星链”网络,其中1584颗将部署在地球上空550千米处的近地轨道,并从2020年开始工作。该卫星仍在工作。
2D轨道图
3D轨道图
轨道高度分析图
轨道倾角分析图
轨道综合分析图
查看轨道综合分析图